map of GEO home
Great Circle Mapper logo
GEO - Airport
Location
City:  Georgetown, Guyana
Name:Cheddi Jagan International Airport
Old (Alt.):Timehri International Airport
ICAO / IATA:SYCJ / GEO

Details
Type:Airport (Aerodrome, Airfield)
Use:Public/Civil, International (customs port of entry)
Latitude:629'55"N (6.498553)
Longitude:5815'15"W (-58.254118)
Datum:WGS 1984
Elevation:95 ft (29 m)
Variation:16.26W (WMM2015 magnetic declination)
-0.06 annual change
Runways:2
Longest:7448 × 148 ft (2270 × 45 m), paved

Time
Time Zone:UTC-4
Local Time:

Weather
METAR:SYCJ 061500Z 10006KT 9999 FEW019CB BKN020 SCT300 30/24 Q1013 CB-
TAF:SYCJ 061108Z 0612/0712 06006KT 5000 TSRA FEW012CB BKN014 BKN036 BKN070
BECMG 0618/0620 00000KT 9999 FEW014CB BKN016 BKN100

Related Locations
Nearby:
Farthest:WAWH: 12356 mi / 19884 km
H. Aroeppala Selayar [H. Aroeppala Selayar Airport], SN, ID

Find:

   beyond  
but within

Other Information
Maps:
NOTAMs:
Links:
Sources:

  
flag of Guyana   

Sectional Chart

Flight Planning
at skyvector.com

Satellite Image

Google Maps Satellite view

 

Copyright © 2004-2015 Karl L. Swartz. All rights reserved.
The Great Circle Mapper name and logo are trademarks of the Great Circle Mapper.
All other trademarks mentioned herein belong to their respective owners.
Please see credits for attibutions and further copyright information.

  Follow gcmap on Facebook Follow gcmap on Twitter Follow gcmap on Google+

hCard Microformat

Geo Microformat